CW2597 Weather Reports


Display with metric or nautical units.
time (UTC)temp
F
wind
direction
speed
MPH
gust
MPH
rain 1hr
in
rain 24hr
in
rain mn
in
humidity
%
barometer
mb
20240224023705 39 162 0.0 0.0 0.00 0.05 0.00 84 995.2
20240224023510 39 162 0.0 0.0 0.00 0.00 0.00 84 994.0
20240224023205 39 162 0.0 0.0 0.00 0.05 0.00 84 995.1
20240224022705 39 162 0.0 0.0 0.00 0.05 0.00 84 995.1
20240224022205 39 162 0.0 0.0 0.00 0.05 0.00 84 995.1
20240224021705 39 162 0.0 0.0 0.00 0.05 0.00 84 995.0
20240224021511 39 162 0.0 0.0 0.00 0.00 0.00 84 993.9
20240224021205 39 162 0.0 0.0 0.00 0.05 0.00 84 995.0
20240224020705 39 163 0.0 0.0 0.00 0.05 0.00 84 995.1
20240224020511 39 163 0.0 1.0 0.00 0.00 0.00 84 993.8
20240224020205 39 162 0.0 2.0 0.00 0.06 0.00 84 995.0
20240224014705 39 119 0.0 1.0 0.00 0.06 0.00 84 995.0
20240224014511 39 119 0.0 5.0 0.00 0.00 0.00 84 993.9
20240224014205 39 119 1.0 5.0 0.00 0.06 0.00 83 995.0
20240224013511 40 127 0.0 0.0 0.00 0.00 0.00 83 993.8
20240224013205 40 127 0.0 0.0 0.00 0.06 0.00 83 995.0
20240224012511 40 140 0.0 0.0 0.00 0.00 0.00 83 993.8
20240224012205 40 140 0.0 0.0 0.00 0.07 0.00 83 995.0
20240224011704 40 140 0.0 1.0 0.00 0.07 0.00 83 995.0
20240224010205 41 140 0.0 1.0 0.00 0.09 0.00 82 995.0
20240224005510 41 140 0.0 6.0 0.00 0.00 0.00 82 993.7
20240224005205 41 117 0.0 2.0 0.00 0.09 0.00 82 995.0
20240224004705 41 151 0.0 3.0 0.00 0.09 0.00 82 994.9
20240224004510 41 151 0.0 4.0 0.00 0.00 0.00 82 993.7
20240224004205 41 150 1.0 6.0 0.00 0.10 0.00 82 994.9
20240224003510 42 132 3.0 8.0 0.00 0.00 0.00 82 993.7
20240224003205 41 165 3.0 8.0 0.00 0.12 0.00 82 994.9
20240224002705 41 163 3.0 7.0 0.00 0.12 0.00 82 994.9
20240224002511 41 169 3.0 7.0 0.00 0.00 0.00 83 993.7
20240224001705 41 148 2.0 5.0 0.00 0.13 0.00 83 994.9
20240224001511 41 156 2.0 8.0 0.00 0.00 0.00 83 993.6
20240224001205 41 154 3.0 8.0 0.00 0.14 0.00 83 994.9
20240224000704 41 166 1.0 3.0 0.00 0.15 0.00 83 994.9
20240224000510 41 165 0.0 2.0 0.00 0.00 0.00 83 993.7
20240224000205 41 163 0.0 2.0 0.00 0.16 0.00 83 994.8
20240223235705 41 178 0.0 3.0 0.00 0.18 0.00 82 994.8
20240223235205 41 169 1.0 3.0 0.00 0.20 0.00 82 994.8
20240223234705 41 171 0.0 2.0 0.00 0.21 0.00 82 994.8
20240223234205 41 163 2.0 6.0 0.00 0.22 0.00 82 994.8
20240223233705 41 164 2.0 5.0 0.00 0.22 0.00 82 994.8
20240223233510 41 146 0.0 5.0 0.00 0.00 0.00 82 993.6
20240223233205 41 148 0.0 2.0 0.00 0.22 0.00 82 994.8
20240223232705 42 148 1.0 6.0 0.00 0.22 0.00 82 994.9
20240223232510 42 164 1.0 6.0 0.00 0.00 0.00 82 993.7
20240223231704 42 140 1.0 6.0 0.00 0.22 0.00 81 994.8
20240223231511 42 146 0.0 4.0 0.00 0.00 0.00 81 993.6
20240223231204 42 179 1.0 3.0 0.00 0.22 0.00 81 994.8
20240223230705 43 163 2.0 5.0 0.00 0.22 0.00 81 994.8
20240223230510 43 163 2.0 5.0 0.00 0.00 0.00 81 993.7
20240223230204 43 156 1.0 3.0 0.00 0.22 0.00 81 994.8
20240223225705 43 160 2.0 5.0 0.00 0.22 0.22 81 994.8
20240223225510 44 177 2.0 7.0 0.00 0.22 0.22 81 993.6
20240223225205 44 160 3.0 9.0 0.00 0.22 0.22 80 994.8
20240223224705 44 165 2.0 5.0 0.00 0.22 0.22 80 994.8
20240223224510 44 165 3.0 9.0 0.00 0.22 0.22 80 993.6
20240223224204 45 166 5.0 9.0 0.00 0.22 0.22 80 994.8
20240223223704 45 158 3.0 10.0 0.00 0.22 0.22 80 994.8
20240223223204 45 183 5.0 12.0 0.00 0.22 0.22 80 994.9
20240223222510 45 187 6.0 11.0 0.00 0.22 0.22 80 993.7
20240223221510 45 174 6.0 14.0 0.00 0.22 0.22 81 993.6
20240223220704 45 174 5.0 7.0 0.00 0.22 0.22 81 994.7
20240223220510 44 148 5.0 9.0 0.00 0.22 0.22 81 993.6
20240223220205 44 162 5.0 12.0 0.00 0.22 0.22 82 994.7
20240223215510 44 186 4.0 8.0 0.00 0.22 0.22 82 993.5
20240223215205 44 180 3.0 7.0 0.00 0.22 0.22 83 994.6
20240223214705 43 164 2.0 12.0 0.00 0.22 0.22 83 994.6
20240223214510 43 163 3.0 8.0 0.00 0.22 0.22 83 993.5
20240223214205 43 178 2.0 6.0 0.00 0.22 0.22 84 994.7
20240223213510 43 172 3.0 7.0 0.00 0.22 0.22 84 993.5
20240223213204 43 174 3.0 10.0 0.00 0.22 0.22 84 994.7
20240223212704 42 176 3.0 7.0 0.00 0.22 0.22 85 994.8
20240223212511 42 187 1.0 6.0 0.00 0.22 0.22 85 993.5
20240223212204 43 158 1.0 5.0 0.00 0.22 0.22 85 994.8
20240223211705 43 159 0.0 1.0 0.00 0.22 0.22 85 994.7
20240223211510 43 146 0.0 2.0 0.00 0.22 0.22 84 993.6
20240223211205 43 159 0.0 2.0 0.00 0.22 0.22 84 994.7
20240223210705 43 102 0.0 1.0 0.00 0.22 0.22 84 994.7
20240223210510 43 102 0.0 5.0 0.00 0.22 0.22 84 993.5
20240223210205 43 107 1.0 5.0 0.01 0.22 0.22 84 994.7
20240223205704 43 165 0.0 0.0 0.02 0.22 0.22 84 994.7
20240223205510 43 165 0.0 0.0 0.03 0.22 0.22 84 993.5
20240223204704 43 165 0.0 1.0 0.03 0.22 0.22 84 994.8
20240223204510 43 165 0.0 1.0 0.03 0.22 0.22 84 993.6
20240223203705 43 165 0.0 1.0 0.03 0.23 0.22 84 994.7
20240223203510 43 165 0.0 1.0 0.03 0.22 0.22 84 993.5
20240223203205 43 165 0.0 3.0 0.03 0.23 0.22 84 994.7
20240223202705 43 146 0.0 2.0 0.03 0.23 0.22 84 994.6
20240223202510 43 146 1.0 4.0 0.03 0.22 0.22 83 993.5
20240223202204 43 145 0.0 5.0 0.03 0.23 0.22 84 994.7
20240223201704 44 170 3.0 5.0 0.03 0.23 0.22 83 994.7
20240223201510 44 168 1.0 5.0 0.03 0.22 0.22 83 993.4
20240223200705 44 138 5.0 12.0 0.03 0.23 0.22 82 994.5
20240223200510 44 157 4.0 11.0 0.03 0.22 0.22 83 993.4
20240223200205 45 150 5.0 14.0 0.02 0.24 0.21 82 994.8
20240223195705 45 197 3.0 6.0 0.01 0.22 0.20 81 994.9
20240223195510 44 191 2.0 5.0 0.00 0.19 0.19 81 993.6
20240223195205 44 192 3.0 5.0 0.00 0.21 0.19 81 994.7
20240223194704 44 191 1.0 3.0 0.00 0.21 0.19 81 994.6
20240223194510 44 181 2.0 4.0 0.00 0.19 0.19 81 993.4
20240223194205 44 171 1.0 3.0 0.00 0.21 0.19 81 994.5
20240223193510 44 167 3.0 7.0 0.00 0.19 0.19 81 993.4
20240223193205 44 164 2.0 5.0 0.00 0.21 0.19 81 994.4
20240223192704 45 171 2.0 6.0 0.00 0.21 0.19 81 994.3
20240223192205 45 164 3.0 8.0 0.00 0.21 0.19 81 994.4
20240223191704 45 136 2.0 8.0 0.00 0.21 0.19 80 994.3
20240223191510 45 131 3.0 8.0 0.00 0.19 0.19 80 993.1
20240223191204 45 169 2.0 8.0 0.00 0.21 0.19 80 994.3
20240223190510 45 173 3.0 7.0 0.00 0.19 0.19 80 993.2
20240223190205 46 168 3.0 8.0 0.00 0.21 0.19 80 994.3
20240223185705 46 180 3.0 10.0 0.00 0.21 0.19 80 994.3
20240223185510 46 177 4.0 11.0 0.00 0.19 0.19 80 993.1
20240223185205 45 166 4.0 7.0 0.00 0.21 0.19 81 994.3
20240223184510 45 138 5.0 11.0 0.00 0.19 0.19 81 993.1
20240223183704 45 157 4.0 7.0 0.00 0.21 0.19 82 994.1
20240223183510 44 183 2.0 6.0 0.00 0.19 0.19 82 993.0
20240223183204 44 140 1.0 3.0 0.00 0.21 0.19 82 994.1
20240223182510 44 101 1.0 4.0 0.00 0.19 0.19 82 992.9
20240223181705 44 120 0.0 2.0 0.00 0.21 0.19 82 994.0
20240223181510 44 149 0.0 4.0 0.00 0.19 0.19 81 992.8
20240223180704 45 167 0.0 1.0 0.00 0.21 0.19 81 994.0
20240223180204 45 167 0.0 1.0 0.00 0.21 0.19 81 993.9
20240223175705 45 167 1.0 3.0 0.00 0.21 0.19 81 993.9
20240223175510 45 167 0.0 3.0 0.00 0.19 0.19 80 992.7
20240223175204 45 162 0.0 3.0 0.00 0.21 0.19 80 993.9
20240223174704 46 165 2.0 5.0 0.00 0.21 0.19 80 993.9
20240223174510 46 150 2.0 5.0 0.00 0.19 0.19 80 992.7
20240223174205 46 168 2.0 6.0 0.00 0.21 0.19 80 993.8
20240223173705 46 169 3.0 6.0 0.00 0.21 0.19 80 993.8
20240223173510 46 149 2.0 6.0 0.00 0.19 0.19 80 992.6
20240223173204 46 169 2.0 3.0 0.00 0.21 0.19 80 993.8
20240223172704 46 178 3.0 6.0 0.00 0.21 0.19 80 993.7
20240223172511 46 182 3.0 5.0 0.00 0.19 0.19 80 992.6
20240223172204 46 184 2.0 6.0 0.00 0.21 0.19 80 993.7
20240223171510 46 173 4.0 10.0 0.00 0.19 0.19 80 992.5
20240223170705 46 189 2.0 6.0 0.00 0.21 0.19 81 993.6
20240223170510 46 175 3.0 8.0 0.00 0.19 0.19 81 992.5
20240223170204 46 176 3.0 8.0 0.00 0.21 0.19 81 993.6
20240223165705 46 173 4.0 7.0 0.00 0.21 0.19 81 993.6
20240223165510 46 196 3.0 7.0 0.00 0.19 0.19 81 992.4
20240223165204 46 188 4.0 10.0 0.00 0.21 0.19 80 993.5
20240223164704 47 221 7.0 14.0 0.00 0.21 0.19 80 993.5
20240223164510 47 204 6.0 14.0 0.00 0.19 0.19 79 992.3
20240223164205 47 230 2.0 12.0 0.00 0.21 0.19 80 993.4
20240223163705 47 195 5.0 9.0 0.00 0.21 0.19 79 993.4
20240223163510 47 202 4.0 9.0 0.00 0.19 0.19 79 992.1
20240223163204 47 203 3.0 6.0 0.00 0.21 0.19 79 993.3
20240223162704 47 218 4.0 10.0 0.00 0.21 0.19 78 993.2
20240223162510 47 207 5.0 10.0 0.00 0.19 0.19 78 992.0
20240223161705 47 182 4.0 10.0 0.00 0.21 0.19 78 993.1
20240223161510 47 208 5.0 11.0 0.00 0.19 0.19 78 991.9
20240223161204 47 196 7.0 12.0 0.00 0.21 0.19 78 993.1
20240223160704 47 194 5.0 16.0 0.00 0.21 0.19 78 993.0
20240223160205 47 198 7.0 17.0 0.00 0.21 0.19 78 992.9
20240223155704 47 174 6.0 12.0 0.00 0.21 0.19 78 992.8
20240223155510 47 213 8.0 15.0 0.00 0.19 0.19 78 991.7
20240223155204 47 172 8.0 15.0 0.00 0.21 0.19 79 992.8
20240223154704 47 172 10.0 16.0 0.00 0.21 0.19 78 992.8
20240223154510 47 154 7.0 13.0 0.00 0.19 0.19 79 991.6
20240223154204 47 175 6.0 14.0 0.00 0.21 0.19 79 992.7
20240223153204 47 202 9.0 16.0 0.00 0.21 0.19 78 992.8
20240223152704 47 180 8.0 20.0 0.00 0.21 0.19 78 992.7
20240223152510 47 185 8.0 19.0 0.00 0.19 0.19 78 991.6
20240223152205 47 181 8.0 13.0 0.00 0.21 0.19 78 992.7
20240223151705 47 194 9.0 13.0 0.00 0.21 0.19 78 992.7
20240223151511 47 154 8.0 17.0 0.00 0.19 0.19 78 991.4
20240223151205 48 192 9.0 17.0 0.00 0.21 0.19 78 992.6
20240223150704 48 189 6.0 12.0 0.00 0.21 0.19 79 992.6
20240223150510 47 204 6.0 14.0 0.00 0.19 0.19 79 991.3
20240223150204 47 137 6.0 14.0 0.00 0.21 0.19 79 992.5
20240223145705 47 176 7.0 15.0 0.00 0.21 0.19 79 992.5
20240223145510 47 182 6.0 15.0 0.00 0.19 0.19 79 991.2
20240223145204 48 174 6.0 12.0 0.00 0.21 0.19 78 992.4
20240223144705 48 178 7.0 14.0 0.00 0.21 0.19 78 992.4
20240223144510 48 161 8.0 15.0 0.00 0.19 0.19 79 991.2
20240223144204 48 172 8.0 15.0 0.00 0.21 0.19 78 992.4
20240223143704 48 167 7.0 12.0 0.00 0.21 0.19 79 992.4
20240223143204 48 180 6.0 12.0 0.00 0.21 0.19 79 992.2
20240223142704 47 188 5.0 16.0 0.00 0.21 0.19 79 992.1
20240223142510 47 197 6.0 16.0 0.00 0.19 0.19 79 990.9
20240223142205 47 189 5.0 18.0 0.00 0.21 0.19 79 992.2
20240223141704 48 204 9.0 20.0 0.00 0.21 0.19 77 992.2
20240223141510 48 243 9.0 19.0 0.00 0.19 0.19 77 991.0
20240223141204 49 209 7.0 15.0 0.00 0.21 0.19 74 992.1
20240223140704 48 185 8.0 18.0 0.00 0.21 0.19 73 991.9
20240223140510 48 171 9.0 21.0 0.00 0.19 0.19 74 990.6
20240223140204 48 177 9.0 20.0 0.00 0.21 0.19 74 991.7
20240223135510 48 235 8.0 16.0 0.00 0.19 0.19 75 990.4
20240223135204 48 199 9.0 16.0 0.00 0.21 0.19 75 991.7
20240223134704 48 205 7.0 17.0 0.00 0.21 0.19 76 991.7
20240223134205 48 183 11.0 22.0 0.00 0.21 0.19 76 991.7
20240223133705 47 199 7.0 20.0 0.00 0.21 0.19 77 991.8
20240223133510 47 161 8.0 21.0 0.00 0.19 0.19 77 990.6
20240223133204 47 188 10.0 21.0 0.00 0.21 0.19 76 991.7
20240223132510 47 226 9.0 17.0 0.00 0.19 0.19 76 990.6
20240223132204 47 197 8.0 21.0 0.00 0.21 0.19 76 991.8
20240223131704 48 172 13.0 28.0 0.00 0.21 0.19 74 991.7
20240223131510 48 183 11.0 21.0 0.00 0.19 0.19 75 990.6
20240223131204 48 206 12.0 20.0 0.00 0.21 0.19 76 991.7
20240223130705 49 188 7.0 21.0 0.00 0.21 0.19 72 991.6
20240223130510 49 165 8.0 21.0 0.00 0.19 0.19 71 990.4
20240223130204 49 181 9.0 16.0 0.00 0.21 0.19 71 991.5
20240223125704 49 199 9.0 25.0 0.00 0.21 0.19 71 991.4
20240223125510 49 229 11.0 25.0 0.00 0.19 0.19 70 990.2
20240223125204 49 171 11.0 18.0 0.00 0.21 0.19 71 991.5
20240223124704 49 176 10.0 25.0 0.00 0.21 0.19 71 991.5
20240223124204 48 204 8.0 20.0 0.00 0.21 0.19 72 991.6
20240223123704 49 166 11.0 21.0 0.00 0.21 0.19 71 991.6
20240223123510 49 143 9.0 19.0 0.00 0.19 0.19 72 990.5
20240223123204 48 194 7.0 20.0 0.00 0.21 0.19 73 991.6
20240223122704 48 163 9.0 17.0 0.00 0.21 0.19 72 991.5
20240223122510 48 181 10.0 18.0 0.00 0.19 0.19 72 990.4
20240223122205 48 206 10.0 18.0 0.00 0.21 0.19 73 991.5
20240223121705 47 194 7.0 17.0 0.00 0.21 0.19 75 991.6
20240223121204 47 178 6.0 18.0 0.00 0.21 0.19 73 991.6
20240223120704 47 202 6.0 16.0 0.00 0.21 0.19 74 991.7
20240223120511 47 159 10.0 16.0 0.00 0.19 0.19 74 990.5
20240223120205 47 189 7.0 13.0 0.00 0.21 0.19 73 991.6
20240223115704 47 188 10.0 20.0 0.00 0.21 0.19 73 991.6
20240223115510 47 198 9.0 18.0 0.00 0.19 0.19 73 990.5
20240223115204 47 187 10.0 20.0 0.00 0.21 0.19 73 991.6
20240223114704 47 178 11.0 18.0 0.00 0.21 0.19 74 991.5
20240223114204 47 192 7.0 20.0 0.00 0.21 0.19 73 991.6
20240223113704 47 193 9.0 15.0 0.00 0.21 0.19 74 991.5
20240223113510 47 191 8.0 15.0 0.00 0.19 0.19 74 990.4
20240223112704 47 183 10.0 18.0 0.00 0.21 0.19 74 991.6
20240223112510 47 143 9.0 17.0 0.00 0.19 0.19 74 990.4
20240223112204 47 170 10.0 18.0 0.00 0.21 0.19 74 991.5
20240223111704 47 172 7.0 14.0 0.00 0.21 0.19 74 991.6
20240223111511 47 172 7.0 17.0 0.00 0.19 0.19 74 990.4
20240223110704 47 165 7.0 21.0 0.00 0.21 0.19 74 991.6
20240223110204 47 184 8.0 17.0 0.00 0.21 0.19 74 991.5
20240223105704 47 180 9.0 25.0 0.00 0.21 0.19 74 991.5
20240223105513 47 147 11.0 18.0 0.00 0.19 0.19 74 990.3
20240223105204 47 170 11.0 18.0 0.00 0.21 0.19 73 991.5
20240223104704 47 164 8.0 20.0 0.00 0.21 0.19 74 991.5
20240223104513 47 198 6.0 16.0 0.00 0.19 0.19 74 990.4
20240223104204 47 196 11.0 23.0 0.00 0.21 0.19 73 991.6
20240223102704 47 177 9.0 24.0 0.00 0.21 0.19 74 991.3
20240223102513 47 210 9.0 24.0 0.00 0.19 0.19 74 990.2
20240223102204 47 203 7.0 21.0 0.00 0.21 0.19 74 991.3
20240223101704 47 171 7.0 13.0 0.00 0.21 0.19 74 991.2
20240223101513 47 197 7.0 14.0 0.00 0.19 0.19 74 990.1
20240223101204 47 189 8.0 17.0 0.00 0.21 0.19 75 991.2
20240223100704 46 183 7.0 20.0 0.00 0.21 0.19 75 991.1
20240223100204 46 173 10.0 20.0 0.00 0.21 0.19 75 991.2
20240223095704 46 183 6.0 18.0 0.00 0.21 0.19 75 991.2
20240223095512 46 174 9.0 18.0 0.00 0.19 0.19 75 989.9
20240223095204 46 195 10.0 15.0 0.00 0.21 0.19 75 991.2
20240223094704 46 187 7.0 16.0 0.00 0.21 0.19 76 991.1
20240223094512 46 183 8.0 16.0 0.00 0.19 0.19 76 989.9
20240223094204 46 189 9.0 20.0 0.00 0.21 0.19 76 991.1
20240223093704 46 184 8.0 23.0 0.00 0.21 0.19 76 991.0
20240223093512 46 175 12.0 24.0 0.00 0.19 0.19 75 989.8
20240223093204 46 203 13.0 24.0 0.00 0.21 0.19 77 990.9
20240223092512 46 203 9.0 18.0 0.00 0.19 0.19 77 989.7
20240223092204 46 200 9.0 18.0 0.00 0.21 0.19 77 990.9
20240223091704 46 215 11.0 20.0 0.00 0.21 0.19 77 990.8
20240223091513 46 208 8.0 20.0 0.00 0.19 0.19 77 989.5
20240223091204 46 211 7.0 20.0 0.00 0.21 0.19 77 990.7
20240223090704 46 205 10.0 20.0 0.00 0.21 0.19 78 990.6
20240223090512 46 171 9.0 19.0 0.00 0.19 0.19 78 989.5
20240223090204 46 230 11.0 20.0 0.00 0.21 0.19 78 990.6
20240223085704 46 209 11.0 20.0 0.00 0.21 0.19 79 990.5
20240223085204 46 207 8.0 15.0 0.00 0.21 0.19 79 990.5
20240223084513 46 201 9.0 17.0 0.00 0.19 0.19 79 989.4
20240223084204 45 205 9.0 16.0 0.00 0.21 0.19 80 990.6
20240223083513 45 223 8.0 17.0 0.00 0.19 0.19 80 989.4
20240223083204 45 201 7.0 13.0 0.00 0.21 0.19 80 990.6
20240223082704 45 180 6.0 12.0 0.00 0.21 0.19 80 990.7
20240223082513 45 179 6.0 12.0 0.00 0.19 0.19 80 989.5
20240223082204 45 193 7.0 14.0 0.00 0.21 0.19 80 990.6
20240223081513 44 203 7.0 17.0 0.00 0.19 0.19 80 989.4
20240223081204 44 190 7.0 17.0 0.00 0.21 0.19 81 990.6
20240223080704 44 192 5.0 12.0 0.00 0.21 0.19 80 990.6
20240223080512 44 194 6.0 14.0 0.00 0.19 0.19 80 989.4
20240223080204 44 207 7.0 20.0 0.00 0.21 0.19 80 990.5
20240223075704 44 196 7.0 15.0 0.00 0.21 0.19 81 990.4
20240223075512 44 201 7.0 14.0 0.00 0.19 0.19 81 989.2
20240223075204 44 211 7.0 12.0 0.00 0.21 0.19 81 990.3
20240223074704 44 206 6.0 12.0 0.00 0.21 0.19 81 990.3
20240223074513 44 173 6.0 11.0 0.00 0.19 0.19 81 989.1
20240223073204 44 206 7.0 13.0 0.00 0.21 0.19 81 990.3
20240223072704 44 214 8.0 15.0 0.00 0.21 0.19 81 990.3
20240223072512 44 213 7.0 15.0 0.00 0.19 0.19 81 989.1
20240223072203 44 200 6.0 15.0 0.00 0.21 0.19 81 990.3
20240223071704 44 208 7.0 15.0 0.00 0.21 0.19 81 990.3
20240223071513 44 210 6.0 12.0 0.00 0.19 0.19 81 989.1
20240223070704 43 205 8.0 13.0 0.00 0.21 0.19 81 990.2
20240223070512 43 240 6.0 12.0 0.00 0.19 0.19 81 989.0
20240223070204 43 214 6.0 16.0 0.00 0.21 0.19 81 990.1
20240223065704 43 198 6.0 15.0 0.00 0.21 0.19 81 990.1
20240223065512 43 192 7.0 15.0 0.00 0.19 0.19 81 988.9
20240223065204 43 200 5.0 15.0 0.00 0.21 0.19 81 990.1
20240223064703 43 212 9.0 20.0 0.00 0.22 0.19 81 990.0
20240223064512 43 225 5.0 15.0 0.00 0.19 0.19 81 988.8
20240223064204 43 202 6.0 13.0 0.00 0.22 0.19 81 990.0
20240223063704 43 204 7.0 16.0 0.00 0.22 0.19 81 989.9
20240223063512 43 187 8.0 17.0 0.00 0.19 0.19 82 988.7
20240223063204 43 202 9.0 17.0 0.00 0.23 0.19 81 989.8
20240223062704 43 211 6.0 15.0 0.00 0.23 0.19 82 989.9
20240223062512 43 190 7.0 15.0 0.00 0.19 0.19 82 988.6
20240223062203 43 207 7.0 17.0 0.00 0.23 0.19 81 989.8
20240223061703 43 206 5.0 20.0 0.00 0.23 0.19 82 989.8
20240223061513 43 217 6.0 15.0 0.00 0.19 0.19 82 988.6
20240223061203 43 218 7.0 15.0 0.00 0.23 0.19 81 989.7
20240223060704 43 211 7.0 17.0 0.00 0.23 0.19 81 989.6
20240223060513 43 224 9.0 21.0 0.00 0.19 0.19 81 988.4
20240223060204 43 211 10.0 21.0 0.00 0.23 0.19 81 989.5
20240223055703 43 217 13.0 20.0 0.00 0.23 0.19 81 989.4
20240223055512 43 208 10.0 20.0 0.00 0.19 0.19 81 988.2
20240223055204 43 208 10.0 20.0 0.00 0.23 0.19 81 989.4
20240223054512 43 153 8.0 18.0 0.00 0.19 0.19 82 988.1
20240223054203 43 212 9.0 21.0 0.00 0.23 0.19 81 989.2
20240223053703 43 206 8.0 20.0 0.00 0.23 0.19 82 989.2
20240223053512 43 219 11.0 22.0 0.00 0.19 0.19 82 988.0
20240223053204 43 229 12.0 22.0 0.00 0.23 0.19 82 989.1
20240223052704 43 216 9.0 20.0 0.00 0.23 0.19 82 989.1
20240223052512 43 214 9.0 17.0 0.00 0.19 0.19 82 988.0
20240223052204 43 222 9.0 17.0 0.00 0.23 0.19 83 989.0
20240223051514 43 260 10.0 19.0 0.00 0.19 0.19 83 987.8
20240223051204 43 208 11.0 17.0 0.01 0.23 0.19 83 988.8
20240223050705 42 204 9.0 22.0 0.02 0.23 0.19 84 988.8
20240223050512 42 173 10.0 22.0 0.02 0.19 0.19 84 987.6
20240223050205 42 211 11.0 20.0 0.02 0.23 0.19 85 988.7
20240223045705 41 205 5.0 12.0 0.02 0.23 0.19 85 988.6
20240223045205 41 207 6.0 12.0 0.02 0.23 0.19 85 988.6
20240223044705 40 205 5.0 12.0 0.02 0.23 0.19 85 988.6
20240223044512 40 190 5.0 12.0 0.02 0.19 0.19 85 987.3
20240223044205 40 200 5.0 12.0 0.02 0.23 0.19 85 988.5
20240223043705 40 220 9.0 12.0 0.02 0.23 0.19 85 988.5
20240223043512 40 219 7.0 14.0 0.02 0.19 0.19 85 987.3
20240223043206 40 242 5.0 12.0 0.02 0.23 0.19 85 988.5
20240223042705 40 243 5.0 17.0 0.02 0.23 0.19 85 988.7
20240223042512 40 247 9.0 18.0 0.02 0.19 0.19 85 987.5
20240223042204 40 255 10.0 18.0 0.02 0.23 0.19 85 988.7
20240223041705 40 265 6.0 18.0 0.02 0.23 0.19 85 988.6
20240223041513 40 264 9.0 24.0 0.02 0.19 0.19 85 987.3
20240223041205 41 244 11.0 24.0 0.01 0.22 0.18 85 988.4
20240223040705 41 241 7.0 14.0 0.00 0.21 0.17 85 988.3
20240223040513 41 204 7.0 13.0 0.00 0.17 0.17 85 986.9
20240223040205 41 234 6.0 13.0 0.00 0.21 0.17 85 988.1
20240223035705 41 241 9.0 16.0 0.00 0.21 0.17 84 988.1
20240223035512 41 222 9.0 21.0 0.00 0.17 0.17 84 987.0
20240223035205 41 229 10.0 21.0 0.00 0.22 0.17 84 987.9
20240223034705 41 236 10.0 18.0 0.00 0.22 0.17 84 988.0
20240223034513 41 219 9.0 17.0 0.00 0.17 0.17 84 986.7
20240223034205 41 222 7.0 17.0 0.00 0.22 0.17 84 987.8
20240223033705 41 223 13.0 21.0 0.00 0.22 0.17 84 987.7
20240223033512 41 237 12.0 21.0 0.00 0.17 0.17 84 986.5
20240223033205 42 206 13.0 22.0 0.00 0.22 0.17 83 987.6
20240223032705 42 215 14.0 26.0 0.00 0.22 0.17 84 987.6
20240223032205 42 216 12.0 25.0 0.00 0.22 0.17 84 987.5
20240223031705 42 220 13.0 28.0 0.00 0.22 0.17 84 987.3
20240223031512 42 144 14.0 28.0 0.00 0.17 0.17 84 986.2
20240223030705 42 222 13.0 23.0 0.00 0.22 0.17 84 987.1
20240223030513 42 200 12.0 24.0 0.00 0.17 0.17 84 986.0
20240223030205 42 212 11.0 24.0 0.01 0.23 0.17 84 987.1
20240223025512 42 218 13.0 23.0 0.01 0.17 0.17 84 985.7
20240223025205 42 223 10.0 21.0 0.01 0.23 0.17 84 987.0
20240223024512 42 200 12.0 21.0 0.01 0.17 0.17 84 985.6
20240223024205 42 219 13.0 21.0 0.02 0.23 0.17 84 986.7